Location: AstroGeek's Observatory
(41.9520°N, 70.9880°W)
Time: 02:17:24
(UTC-04:00)

ISS - All Passes

Search period start: 25 August 2016 00:00
Search period end: 04 September 2016 00:00
Orbit: 402 x 406 km, 51.6° (Epoch: 25 August)

Date Brightness Start Highest point End Pass type
(mag) Time Alt. Az. Time Alt. Az. Time Alt. Az.
25 Aug - 09:29:23 10° SSW 09:32:25 35° SE 09:35:27 10° ENE daylight
25 Aug - 11:05:51 10° W 11:08:53 33° NNW 11:11:55 10° NE daylight
25 Aug - 12:44:00 10° NW 12:46:05 16° N 12:48:10 10° NE daylight
25 Aug - 14:20:57 10° NW 14:23:29 20° NNE 14:25:59 10° ENE daylight
25 Aug - 15:57:04 10° NW 16:00:22 78° NNE 16:03:38 10° ESE daylight
25 Aug - 17:34:57 10° WSW 17:36:24 12° SW 17:37:51 10° SSW daylight
26 Aug - 08:37:47 10° S 08:40:10 19° SE 08:42:33 10° E daylight
26 Aug - 10:13:09 10° WSW 10:16:23 53° NNW 10:19:37 10° NE daylight
26 Aug - 11:51:05 10° NW 11:53:24 18° NNW 11:55:43 10° NNE daylight
26 Aug - 13:28:35 10° NNW 13:30:49 17° N 13:33:02 10° NE daylight
26 Aug - 15:04:43 10° NW 15:07:55 44° NNE 15:11:04 10° ESE daylight
26 Aug - 16:41:33 10° W 16:44:13 23° SW 16:46:52 10° S daylight
27 Aug - 09:20:40 10° SW 09:23:57 85° SE 09:27:14 10° NE daylight
27 Aug - 10:58:07 10° WNW 11:00:45 21° NNW 11:03:23 10° NE daylight
27 Aug - 12:36:04 10° NW 12:38:07 15° N 12:40:09 10° NE daylight
27 Aug - 14:12:26 10° NW 14:15:22 29° NNE 14:18:17 10° E daylight
27 Aug - 15:48:47 10° WNW 15:51:56 44° SW 15:55:04 10° SSE daylight
28 Aug - 08:28:27 10° SSW 08:31:34 43° SE 08:34:43 10° ENE daylight
28 Aug - 10:05:12 10° W 10:08:08 29° NNW 10:11:05 10° NE daylight
28 Aug - 11:43:21 10° NW 11:45:23 15° N 11:47:26 10° NE daylight
28 Aug - 13:20:07 10° NW 13:22:45 21° NNE 13:25:22 10° ENE daylight
28 Aug - 14:56:16 10° NW 14:59:33 86° SW 15:02:50 10° SE daylight
29 Aug - 07:36:38 10° S 07:39:16 23° SE 07:41:57 10° E daylight
29 Aug - 09:12:25 10° WSW 09:15:35 44° NNW 09:18:45 10° NE daylight
29 Aug - 10:50:26 10° NW 10:52:39 17° N 10:54:54 10° NNE daylight
29 Aug - 12:27:45 10° NNW 12:30:04 17° N 12:32:23 10° NE daylight
29 Aug - 14:03:52 10° NW 14:07:05 52° NNE 14:10:18 10° ESE daylight
29 Aug - 15:40:54 10° W 15:43:19 19° SW 15:45:41 10° S daylight
30 Aug - 06:45:37 10° SSE 06:47:02 12° SE 06:48:28 10° ESE daylight
30 Aug - 08:19:48 10° WSW 08:23:04 78° NW 08:26:22 10° NE daylight
30 Aug - 09:57:26 10° WNW 09:59:57 20° NNW 10:02:29 10° NE daylight
30 Aug - 11:35:15 10° NW 11:37:20 16° N 11:39:25 10° NE daylight
30 Aug - 13:11:31 10° NW 13:14:32 33° NNE 13:17:33 10° E daylight
30 Aug - 14:47:58 10° WNW 14:51:01 35° SW 14:54:02 10° SSE daylight
31 Aug - 07:27:26 10° SW 07:30:38 55° SE 07:33:52 10° ENE daylight
31 Aug - 09:04:27 10° W 09:07:17 26° NNW 09:10:07 10° NE daylight
31 Aug - 10:42:33 10° NW 10:44:34 15° N 10:46:36 10° NE daylight
31 Aug - 12:19:10 10° NW 12:21:54 23° NNE 12:24:37 10° ENE daylight
31 Aug - 13:55:21 10° WNW 13:58:38 69° SW 14:01:53 10° SE daylight
01 Sep - 06:35:25 10° SSW 06:38:17 28° SE 06:41:09 10° ENE daylight
01 Sep - 08:11:34 10° W 08:14:40 38° NNW 08:17:46 10° NE daylight
01 Sep - 09:49:39 10° NW 09:51:48 16° N 09:53:57 10° NNE daylight
01 Sep - 11:26:47 10° NW 11:29:12 18° NNE 11:31:36 10° ENE daylight
01 Sep - 13:02:53 10° NW 13:06:09 63° NNE 13:09:24 10° ESE daylight
01 Sep - 14:40:15 10° W 14:42:16 15° SW 14:44:17 10° S daylight
02 Sep - 05:43:59 10° S 05:45:59 15° SE 05:47:58 10° E visible
02 Sep - 07:18:51 10° WSW 07:22:06 64° NNW 07:25:22 10° NE daylight
02 Sep - 08:56:38 10° WNW 08:59:03 19° NNW 09:01:28 10° NE daylight
02 Sep - 10:34:18 10° NNW 10:36:26 16° N 10:38:35 10° NE daylight
02 Sep - 12:10:29 10° NW 12:13:35 37° NNE 12:16:41 10° E daylight
02 Sep - 13:47:06 10° WNW 13:49:58 28° SW 13:52:50 10° SSE daylight
03 Sep - 06:26:21 10° SW 06:29:36 68° SE 06:32:52 10° ENE daylight
03 Sep - 08:03:36 10° WNW 08:06:19 23° NNW 08:09:03 10° NE daylight
03 Sep - 09:41:38 10° NW 09:43:39 15° N 09:45:40 10° NE daylight
03 Sep - 11:18:06 10° NW 11:20:56 26° NNE 11:23:45 10° E daylight
03 Sep - 12:54:21 10° WNW 12:57:34 55° SW 13:00:47 10° SE daylight
